{"data":{"norad_id":55393,"epoch":"2026-09-20T11:09:11.872800Z","epoch_age_seconds":99665,"freshness":"FRESH","line1":"1 55393U 23014C   26263.46472075 -.00000171  00000+0 -64982-5 0  9993","line2":"2 55393  69.9975 293.2582 0003616 270.0353  90.0391 14.98331661201231","mean_motion":14.98331661,"eccentricity":0.0003616,"inclination_deg":69.9975,"raan_deg":293.2582,"arg_perigee_deg":270.0353,"mean_anomaly_deg":90.0391,"bstar":-6.4982e-6,"rev_number":20123,"period_min":96.106892584712,"perigee_km":569.53756655167,"apogee_km":574.56394233569,"semimajor_km":6950.1877544437,"source":"CELESTRAK","updated_at":"2026-09-21T09:00:33.213413Z"}}